Torna al catalogo

YAOGAN 3

AttivoMilitareSSO
NORAD 32289·PAYLOAD·🇨🇳 China

Lanciato Nov 11, 2007 da Taiyuan Satellite Launch Center

Loading…

Prossimi Passaggi (prossime 24 ore)

TLE

AggiornatoSource: Space-Track

Epoca: Sep 14, 2026, 14:09 UTC

1 32289U 07055A   26257.58976644  .00001540  00000-0  16115-3 0  9999
2 32289  97.8111 286.5814 0001881  88.5499 271.5934 14.91062324 19191

Traccia YAOGAN 3 in tempo reale con AllMySat

Download on the App Store